Skip Page Navigation
NASA JPL Caltech
NASA Logo - Jet Propulsion Laboratory + View the NASA Portal
+ Near-Earth Object (NEO) Program
Search JPL
JPL Home Earth Solar System Stars & Galaxies Technology
JPL Solar System Dynamics
BODIES ORBITS EPHEMERIDES TOOLS PHYSICAL DATA DISCOVERY FAQ SITE MAP
JPL Small-Body Database Browser
Search: [ help ]  
52334 Oberammergau (1992 FS3)
Classification: Main-belt Asteroid          SPK-ID: 2052334
Ephemeris | Orbit Diagram | Orbital Elements | Physical Parameters | Discovery Circumstances | Close-Approach Data ]

[ show orbit diagram ]
Orbital Elements at Epoch 2457400.5 (2016-Jan-13.0) TDB
Reference: JPL 14 (heliocentric ecliptic J2000)
 Element Value Uncertainty (1-sigma)   Units 
e .1259374301945323 5.7166e-08  
a 2.404603346251442 1.6262e-08 au
q 2.101773780187362 1.3536e-07 au
i 3.020266703236622 6.1641e-06 deg
node 30.5100693492622 0.00011778 deg
peri 69.72289170627245 0.00012156 deg
M 207.2451403026314 2.7834e-05 deg
tp 2457978.404574829347
(2017-Aug-12.90457483)
0.00010557 JED
period 1361.957631663805
3.73
1.3816e-05
3.783e-08
d
yr
n .2643254031039234 2.6814e-09 deg/d
Q 2.707432912315522 1.831e-08 au
  Orbit Determination Parameters
   # obs. used (total)      557  
   data-arc span      8506 days (23.29 yr)  
   first obs. used      1992-03-30  
   last obs. used      2015-07-14  
   planetary ephem.      DE431  
   SB-pert. ephem.      SB431-BIG16  
   condition code      0  
   fit RMS      .56852  
   data source      ORB  
   producer      Otto Matic  
   solution date      2015-Sep-02 15:58:47  

Additional Information
 Earth MOID = 1.12061 au 
 Jupiter MOID = 2.43273 au 
 T_jup = 3.511 
[ show covariance matrix ]

Ephemeris | Orbit Diagram | Orbital Elements | Physical Parameters | Discovery Circumstances | Close-Approach Data ]

Physical Parameter Table
Parameter Symbol Value Units Sigma Reference Notes
absolute magnitude H 15.3 mag n/a MPO270399  

52334 Oberammergau           Discovered 1992 Mar. 30 by F. Börngen at Tautenburg.
Oberammergau, situated in the Bavarian Alps, is the festival place of a famous Passion Play, according to tradition held every 10 years since 1634. It is produced entirely with local villagers taking all the parts and singing in the chorus.
NOTE: some special characters may not display properly (any characters within {} are an attempt to place the proper accent above a character)
Reference: 20031110/MPCPages.arcLast Updated: 2003-11-12

[ show close-approach data ]
Alternate Designations
 1992 FS3 = 1996 HJ9 = 1996 HX26 = 2001 QJ217 
Ephemeris | Orbit Diagram | Orbital Elements | Physical Parameters | Discovery Circumstances | Close-Approach Data ]
ABOUT SSD CREDITS/AWARDS PRIVACY/COPYRIGHT GLOSSARY LINKS
FirstGov 2016-Feb-07 03:52 UT
(server date/time)  
NASA Home Page
Site Manager:   Ryan S. Park
Webmaster  Alan B. Chamberlin